Terug naar catalogus

CZ-6A DEB

ActiefPO
NORAD 54496·DEBRIS·🇨🇳 China

Gelanceerd Nov 11, 2022 vanaf Taiyuan Satellite Launch Center

Loading…

Volgende Passages (komende 24 uur)

TLE

VersSource: Space-Track

Epoch: Sep 14, 2026, 06:32 UTC

1 54496U 22151HY  26257.27268947  .00004007  00000-0  11004-2 0  9995
2 54496  99.1237   7.7980 0114878 207.5968 151.9092 14.43819780200484

Volg CZ-6A DEB in realtime met AllMySat

Download on the App Store